[[{"header":{"parameterUnit":"m.s-1","parameterCategory":1,"la1":30.2991,"la2":30.254,"lo1":-89.0895,"lo2":-89.0444,"dy":0.0017,"dx":0.0017,"nx":28,"ny":28,"refTime":"2024-05-05T21:00:00:Z","depth":0,"parameterNumber":2,"parameterNumberName":"U-component_of_WINDS"},"data":[0,0,0,0,0,0,0,0,0,0,0,0,0,0,0,0,0,0,0,0,0,0,0,0,0,0,0,0,0,0,0,0,0,0,0,0,0,0,0,0,0,0,0,0,0,0,0,0,0,0,0,0,0,0,0,0,0,0,-0.6475,-0.6475,0,-0.6464,-0.6464,-0.6463,-0.6471,-0.6472,-0.6472,-0.6473,-0.6461,-0.646,-0.646,0,0,0,0,0,0,0,0,0,0,0,0,0,-0.6505,-0.6504,-0.6475,-0.6475,-0.6475,-0.6464,-0.6464,-0.6463,-0.6471,-0.6472,-0.6472,-0.6473,-0.6461,-0.646,-0.6459,0,0,0,0,0,0,0,0,0,0,0,0,0,-0.6493,-0.6504,-0.6475,-0.6478,-0.6478,-0.6464,-0.6464,-0.6463,-0.6471,-0.6472,-0.6472,-0.6473,-0.6461,-0.646,-0.6459,-0.6442,0,0,-0.6456,-0.6456,0,0,0,0,0,0,0,0,-0.6493,-0.6491,-0.6477,-0.6477,-0.6477,-0.647,-0.647,-0.6456,-0.6471,-0.6474,-0.6473,-0.6473,-0.6463,-0.6462,-0.6459,-0.6442,-0.6441,-0.6456,-0.6456,-0.6455,-0.6455,0,0,0,0,0,0,0,-0.6494,-0.6492,-0.6471,-0.6477,-0.6477,-0.6479,-0.6478,-0.6467,-0.6466,-0.6474,-0.6474,-0.6473,-0.6463,-0.646,-0.6459,-0.6441,-0.6456,-0.6455,-0.6455,-0.6454,-0.6411,-0.641,0,0,0,0,0,0,-0.6495,-0.6493,-0.6471,-0.647,-0.6487,-0.6478,-0.6477,-0.6472,-0.6466,-0.6465,-0.6472,-0.6473,-0.6461,-0.646,-0.6458,-0.6438,-0.6455,-0.6454,-0.6454,-0.6411,-0.641,-0.641,0,0,0,0,0,0,-0.6495,-0.6493,-0.6471,-0.6482,-0.6479,-0.6477,-0.6471,-0.6471,-0.6467,-0.6465,-0.6465,-0.6469,-0.6461,-0.646,-0.6446,-0.6438,-0.6454,-0.6453,-0.6412,-0.6411,-0.641,-0.6398,0,0,0,0,0,0,-0.6496,-0.6493,-0.6486,-0.6481,-0.6479,-0.646,-0.647,-0.647,-0.6466,-0.6467,-0.6461,-0.6461,-0.6462,-0.6448,-0.6445,-0.6437,-0.6452,-0.6413,-0.6411,-0.641,-0.6399,-0.6397,-0.6395,0,0,0,0,0,-0.6497,-0.6483,-0.6486,-0.6483,-0.647,-0.6459,-0.6457,-0.6459,-0.6465,-0.6458,-0.6457,-0.6461,-0.6439,-0.6446,-0.6444,-0.6435,-0.6413,-0.6412,-0.641,-0.64,-0.6397,-0.6395,0,0,0,0,0,0,-0.6487,-0.6482,-0.6485,-0.6469,-0.6465,-0.646,-0.6452,-0.6456,-0.6449,-0.645,-0.6452,-0.6451,-0.6437,-0.6435,-0.6443,-0.6419,-0.6427,-0.6425,-0.642,-0.6418,-0.6416,-0.6416,-0.6451,0,0,0,0,0,-0.6482,-0.6474,-0.6471,-0.6457,-0.6454,-0.6454,-0.6449,-0.645,-0.6445,-0.6443,-0.6441,-0.6436,-0.6428,-0.6423,-0.6415,-0.6399,-0.6398,-0.6392,-0.639,-0.6388,-0.6386,-0.6378,-0.6375,-0.6406,-0.6406,-0.6406,0,0,-0.6474,-0.647,-0.6465,-0.6455,-0.6451,-0.6442,-0.6452,-0.6442,-0.6435,-0.6442,-0.6429,-0.6427,-0.6422,-0.6408,-0.6401,-0.6405,-0.6378,-0.6386,-0.6385,-0.6384,-0.6376,-0.6373,-0.6371,-0.6405,-0.6405,-0.6405,0,0,-0.6453,-0.645,-0.6438,-0.6434,-0.6429,-0.6429,-0.6426,-0.6422,-0.6421,-0.6408,-0.6413,-0.6406,-0.6392,-0.6388,-0.6384,-0.6364,-0.6367,-0.6361,-0.635,-0.6342,-0.6339,-0.6337,-0.633,-0.6327,-0.636,-0.636,-0.6359,0,-0.6443,-0.6429,-0.6431,-0.6421,-0.6417,-0.6423,-0.6411,-0.6408,-0.64,-0.6397,-0.6402,-0.6386,-0.6382,-0.6367,-0.6362,-0.6359,-0.6356,-0.6361,-0.6339,-0.6337,-0.6335,-0.6328,-0.6326,-0.6359,-0.6359,-0.6359,-0.6359,0,-0.6417,-0.6408,-0.6399,-0.6392,-0.6387,-0.6376,-0.6377,-0.6371,-0.6373,-0.6373,-0.636,-0.6357,-0.6349,-0.6346,-0.6348,-0.6331,-0.6334,-0.6339,-0.6348,-0.6332,-0.6325,-0.6323,-0.6358,-0.6358,-0.6358,-0.6358,0,0,-0.6389,-0.6384,-0.638,-0.6377,-0.6372,-0.6365,-0.6355,-0.6348,-0.6343,-0.6338,-0.633,-0.6318,-0.6323,-0.6319,-0.6321,-0.6314,-0.6298,-0.632,-0.632,-0.6316,-0.628,-0.6275,-0.6272,-0.6301,-0.63,-0.63,-0.628,0,-0.6368,-0.635,-0.6352,-0.6335,-0.6327,-0.6333,-0.6324,-0.632,-0.6319,-0.6313,-0.6312,-0.6304,-0.6311,-0.6309,-0.6302,-0.6301,-0.6291,-0.6303,-0.6293,-0.6293,-0.6294,-0.6269,-0.6264,-0.6246,-0.6277,-0.6277,-0.6277,0,-0.6341,-0.6335,-0.6317,-0.6314,-0.6311,-0.6303,-0.6297,-0.629,-0.6286,-0.6286,-0.6282,-0.6285,-0.6275,-0.6285,-0.6271,-0.628,-0.6276,-0.6275,-0.6274,-0.6273,-0.6283,-0.6267,-0.624,-0.6237,-0.6273,-0.6273,-0.6273,0,-0.6322,-0.631,-0.6298,-0.6295,-0.6291,-0.6286,-0.6284,-0.628,-0.6276,-0.6271,-0.6268,-0.6261,-0.6258,-0.6253,-0.6254,-0.6261,-0.6241,-0.625,-0.6241,-0.6241,-0.6236,-0.6236,-0.6208,-0.6234,-0.6234,-0.6234,-0.6234,0,-0.6298,-0.6287,-0.6289,-0.6282,-0.627,-0.6273,-0.6261,-0.6259,-0.6257,-0.6249,-0.6254,-0.6247,-0.625,-0.6243,-0.6244,-0.6233,-0.6231,-0.6231,-0.6232,-0.6231,-0.6231,-0.6228,-0.6229,-0.6233,-0.6233,-0.6233,-0.6234,0,-0.6275,-0.6276,-0.6263,-0.6261,-0.626,-0.6251,-0.6249,-0.6242,-0.6243,-0.6233,-0.6231,-0.6232,-0.6224,-0.6225,-0.6217,-0.6218,-0.6204,-0.6206,-0.6205,-0.6205,-0.6196,-0.6197,-0.6164,-0.616,-0.6189,-0.6189,-0.6189,0,-0.626,-0.6251,-0.6248,-0.6244,-0.6242,-0.6234,-0.623,-0.6233,-0.6228,-0.6223,-0.6217,-0.621,-0.6204,-0.6192,-0.6192,-0.6185,-0.6187,-0.6177,-0.6186,-0.6186,-0.6187,-0.6188,-0.6187,-0.6174,-0.6174,-0.6174,-0.6174,0,-0.6233,-0.6234,-0.6227,-0.6221,-0.6216,-0.6212,-0.6207,-0.6203,-0.6206,-0.6201,-0.6193,-0.6189,-0.618,-0.6173,-0.6168,-0.6166,-0.617,-0.6171,-0.6168,-0.6167,-0.6167,-0.6167,-0.62,-0.6171,-0.6171,-0.6172,-0.6172,-0.6172,-0.6213,-0.6206,-0.6203,-0.6196,-0.6193,-0.6189,-0.6183,-0.6182,-0.6176,-0.617,-0.6172,-0.6163,-0.616,-0.6153,-0.6151,-0.6144,-0.6148,-0.6145,-0.6144,-0.6143,-0.6142,-0.6168,-0.6143,-0.6143,-0.6143,-0.6143,-0.6144,0,-0.6186,-0.6185,-0.6178,-0.6172,-0.6167,-0.6172,-0.6168,-0.6163,-0.6155,-0.6152,-0.6147,-0.6138,-0.6132,-0.6131,-0.6125,-0.612,-0.6122,-0.6118,-0.6119,-0.6118,-0.6138,-0.6141,-0.6117,-0.6117,-0.6117,-0.6117,-0.6117,-0.6117,-0.6171,-0.616,-0.6161,-0.6148,-0.6147,-0.6139,-0.6136,-0.6133,-0.613,-0.6121,-0.6115,-0.6115,-0.6113,-0.6107,-0.6101,-0.6101,-0.6099,-0.6095,-0.6095,-0.6114,-0.6117,-0.6119,-0.6122,-0.6094,-0.6094,-0.6076,-0.6076,-0.6075]},{"header":{"parameterUnit":"m.s-1","parameterCategory":1,"la1":30.2991,"la2":30.254,"lo1":-89.0895,"lo2":-89.0444,"dy":0.0017,"dx":0.0017,"nx":28,"ny":28,"refTime":"2024-05-05T21:00:00:Z","depth":0,"parameterNumber":3,"parameterNumberName":"V-component_of_WINDS"},"data":[0,0,0,0,0,0,0,0,0,0,0,0,0,0,0,0,0,0,0,0,0,0,0,0,0,0,0,0,0,0,0,0,0,0,0,0,0,0,0,0,0,0,0,0,0,0,0,0,0,0,0,0,0,0,0,0,0,0,5.2593,5.2593,0,5.2601,5.2601,5.2601,5.254,5.2538,5.2536,5.2535,5.254,5.2542,5.2544,0,0,0,0,0,0,0,0,0,0,0,0,0,5.2524,5.2525,5.2593,5.2593,5.2594,5.2601,5.2601,5.2601,5.254,5.2538,5.2536,5.2534,5.254,5.2542,5.2544,0,0,0,0,0,0,0,0,0,0,0,0,0,5.2545,5.2526,5.2593,5.2564,5.2561,5.2601,5.2601,5.2601,5.254,5.2538,5.2535,5.2533,5.2539,5.2542,5.2544,5.2612,0,0,5.2552,5.2553,0,0,0,0,0,0,0,0,5.2544,5.2548,5.2568,5.2566,5.2563,5.2567,5.2579,5.2605,5.2541,5.2548,5.2534,5.2532,5.2551,5.2553,5.256,5.2612,5.2613,5.2553,5.2554,5.2555,5.2556,0,0,0,0,0,0,0,5.2542,5.2547,5.2596,5.2568,5.2565,5.255,5.255,5.2583,5.2564,5.2547,5.2543,5.2545,5.2549,5.2557,5.2559,5.2613,5.2553,5.2555,5.2556,5.2558,5.2723,5.2725,0,0,0,0,0,0,5.2545,5.2546,5.2596,5.2597,5.2547,5.2553,5.2553,5.2568,5.2563,5.256,5.2547,5.2542,5.2554,5.2556,5.2559,5.2639,5.2555,5.2558,5.2559,5.272,5.2723,5.2726,0,0,0,0,0,0,5.2544,5.255,5.2596,5.257,5.2575,5.2557,5.2574,5.257,5.2578,5.2563,5.2559,5.2559,5.2552,5.2556,5.26,5.2638,5.2559,5.2561,5.2717,5.2721,5.2725,5.2799,0,0,0,0,0,0,5.2542,5.255,5.2576,5.2571,5.2576,5.2637,5.2577,5.2572,5.2583,5.2576,5.2573,5.257,5.255,5.2596,5.2603,5.2641,5.2563,5.2713,5.2719,5.2724,5.2793,5.2805,5.2816,0,0,0,0,0,5.254,5.2596,5.2578,5.2584,5.2608,5.2639,5.2642,5.2618,5.2586,5.2612,5.2603,5.257,5.2633,5.2601,5.2608,5.2647,5.2711,5.2717,5.2723,5.2788,5.2803,5.2816,0,0,0,0,0,0,5.2604,5.2594,5.2574,5.263,5.2636,5.2629,5.266,5.2635,5.2649,5.2642,5.2612,5.2612,5.2662,5.2659,5.2623,5.2713,5.2666,5.2674,5.2713,5.2727,5.2739,5.2738,5.2566,0,0,0,0,0,5.2625,5.2651,5.2641,5.2692,5.2696,5.2678,5.269,5.2672,5.2676,5.2678,5.2672,5.2677,5.2698,5.2713,5.2731,5.2793,5.2791,5.2823,5.2834,5.2844,5.2851,5.2884,5.2898,5.2747,5.2747,5.2747,0,0,5.2667,5.2666,5.2684,5.2704,5.2707,5.2735,5.268,5.2711,5.2732,5.2683,5.2724,5.2721,5.2724,5.2778,5.2801,5.2777,5.2893,5.2852,5.286,5.2861,5.2892,5.2907,5.2919,5.2751,5.2751,5.275,0,0,5.276,5.2761,5.2804,5.2808,5.2813,5.2801,5.2811,5.2808,5.2804,5.2846,5.281,5.2834,5.287,5.2875,5.2882,5.2978,5.2949,5.2985,5.3044,5.3077,5.3089,5.3099,5.3134,5.3147,5.2992,5.2993,5.2993,0,5.2812,5.2853,5.2829,5.2863,5.2874,5.2832,5.2875,5.288,5.289,5.2898,5.2871,5.2918,5.2917,5.2972,5.2996,5.3002,5.3013,5.2985,5.3089,5.31,5.3109,5.3142,5.3155,5.2997,5.2996,5.2996,5.2996,0,5.2918,5.2947,5.2981,5.2994,5.3008,5.3046,5.3027,5.3045,5.3026,5.3017,5.306,5.3058,5.3076,5.3088,5.3069,5.314,5.3125,5.3095,5.3046,5.3128,5.3158,5.3171,5.3003,5.3002,5.3,5.2999,0,0,5.3049,5.305,5.3062,5.3068,5.3072,5.3094,5.3131,5.3149,5.3165,5.3174,5.3204,5.3237,5.3209,5.3217,5.3199,5.3228,5.3305,5.3193,5.3193,5.3214,5.3384,5.3408,5.3423,5.3286,5.3288,5.329,5.3384,0,5.314,5.3204,5.3184,5.3248,5.3275,5.3237,5.327,5.3275,5.3268,5.329,5.3281,5.3305,5.3266,5.3271,5.3298,5.329,5.3339,5.3283,5.3314,5.3315,5.3314,5.3438,5.3463,5.3551,5.3396,5.3398,5.3399,0,5.3254,5.3269,5.3337,5.3337,5.3348,5.3377,5.3394,5.3415,5.3421,5.3413,5.3424,5.34,5.3436,5.3388,5.3438,5.34,5.3412,5.341,5.3413,5.3415,5.3362,5.3444,5.3579,5.3592,5.3417,5.3416,5.3415,0,5.3344,5.3381,5.3427,5.3433,5.3434,5.3456,5.3458,5.3461,5.3474,5.3488,5.3496,5.3514,5.3524,5.3538,5.3519,5.3486,5.3572,5.3523,5.3567,5.3567,5.3586,5.3585,5.3725,5.3594,5.3594,5.3593,5.3593,0,5.3447,5.349,5.3468,5.3496,5.3543,5.352,5.3567,5.3564,5.3568,5.3594,5.3562,5.3587,5.3561,5.3584,5.357,5.3614,5.3618,5.3613,5.3609,5.3616,5.3617,5.3623,5.3616,5.3597,5.3596,5.3595,5.3595,0,5.3555,5.3542,5.3589,5.3588,5.3588,5.3623,5.3621,5.3647,5.3638,5.3673,5.3679,5.3665,5.3691,5.3674,5.3699,5.369,5.3747,5.3734,5.3746,5.3742,5.3788,5.3784,5.3937,5.3956,5.3812,5.3813,5.3815,0,5.3622,5.3654,5.3657,5.3673,5.3677,5.3704,5.3717,5.3696,5.3711,5.3721,5.3746,5.3769,5.3787,5.383,5.3821,5.3841,5.3828,5.3881,5.3831,5.3838,5.383,5.3828,5.3831,5.3891,5.3892,5.3894,5.3895,0,5.3742,5.3734,5.3756,5.3776,5.3794,5.3808,5.382,5.3835,5.3813,5.3832,5.3859,5.3873,5.39,5.3923,5.394,5.3941,5.3915,5.3911,5.3922,5.393,5.3935,5.3933,5.3773,5.3907,5.3906,5.3905,5.3904,5.3904,5.3831,5.3859,5.3866,5.3892,5.3899,5.3911,5.3935,5.3931,5.3953,5.3974,5.396,5.3992,5.3997,5.4017,5.4021,5.4046,5.4024,5.4041,5.4045,5.4049,5.4056,5.3932,5.4049,5.4048,5.4048,5.4048,5.4047,0,5.3951,5.3954,5.3977,5.3996,5.4016,5.3991,5.4003,5.4021,5.405,5.4058,5.4077,5.4108,5.4131,5.4126,5.4146,5.4167,5.4156,5.4173,5.4171,5.4172,5.4073,5.4062,5.4182,5.4182,5.4182,5.4182,5.4182,5.4182,5.4015,5.4061,5.4055,5.4104,5.4106,5.4138,5.4147,5.4158,5.4165,5.4202,5.4221,5.4218,5.4221,5.4242,5.4262,5.4259,5.4269,5.4291,5.4284,5.4192,5.4179,5.4166,5.4155,5.4293,5.4293,5.4381,5.4382,5.4382]}]]